www.pogodaiklimat.ru
Время
(UTC), дата
15 8.12
18 8.12
21 8.12
00 9.12
03 9.12
06 9.12
09 9.12
12 9.12
15 9.12
18 9.12
21 9.12
00 10.12
03 10.12
06 10.12
09 10.12
12 10.12
15 10.12
18 10.12
21 10.12
00 11.12
03 11.12
06 11.12
09 11.12
12 11.12
15 11.12
18 11.12
21 11.12
00 12.12
03 12.12
06 12.12
09 12.12
12 12.12
15 12.12
18 12.12
21 12.12
00 13.12
03 13.12
06 13.12
09 13.12
12 13.12
15 13.12
18 13.12
21 13.12
00 14.12
03 14.12
06 14.12
09 14.12
12 14.12
15 14.12
18 14.12
21 14.12
00 15.12
03 15.12
06 15.12
09 15.12
12 15.12
Ветер
(напр.,м/с)
Видим. Явления Облачность Т
(С)
Тd
(С)
f
(%)
Тe
(С)
Тes
(С)
Комфортность P
(гПа)
Po
(гПа)
Тmin
(С)
Tmax
(С)
R
(мм)
R24
(мм)
S
(см)
Ю 4 15 км {снег} 10/10 500 м
[Sc]
+0.8 0.0 94 -5 -5 тепло 990.4 983.2 +0.9 3
Ю 5
{10}
2100 м морось {снег} 10/10 270 м
[St]
+1.0 -0.1 92 -5 -5 тепло 990.3 983.1
Ю 6-12
{14}
15 км {морось} 10/10 450 м
[Sc]
+0.8 -1.2 86 -6 -6 тепло 989.7 982.5
Ю 5
{12}
15 км в посл. час ливневой снег 9/9 480 м
[Cb cap]
+0.6 -0.5 92 -5 -5 тепло 988.5 981.3
Ю 5
{10}
15 км {ливн. осадки} 9/9 450 м
[Sc]
+0.9 -0.8 88 -5 -5 тепло 986.7 979.5 +0.3 1 50
Ю 6-10
{11}
3100 м слаб. ливневой снег 10/10 330 м
[Cb cap]
+0.8 -0.3 92 -6 -6 тепло 986.4 979.2
ЮЗ 6-10
{11}
15 км {ливн. осадки} 9/9 960 м
[Cb cap]
+0.8 -1.5 85 -6 -6 тепло 991.5 984.3
ЮЗ 4
{11}
15 км в посл. час ливневой снег 9/9 800 м
[Cb cap]
-0.2 -1.9 88 -6 -6 тепло 994.1 986.8
Ю 4 15 км 9/9 1020 м
[Sc]
-0.2 -2.9 82 -6 -6 тепло 994.9 987.6 +1.4 2
Ю 5 400 м сильн. снег 10/8 90 м
[Frnb As op]
-0.4 -1.6 92 -7 -7 тепло 992.8 985.5
Ю 5
{10}
1900 м сильн. снег 10/8 120 м
[Frnb As op]
-0.2 -0.8 96 -7 -7 тепло 989.8 982.6
Ю 4
{11}
1300 м сильн. снег 10/8 120 м
[Frnb As op]
+0.1 -0.4 96 -6 -6 тепло 988.8 981.6
ЮЗ 5 15 км {снег} 10/10 500 м
[Sc]
+0.9 -0.2 92 -5 -5 тепло 989.8 982.6 -0.6 6 55
Ю 4
{11}
10 км слаб. морось 10/10 400 м
[St]
+1.3 -0.1 90 -4 -4 тепло 990.1 982.9
Ю 5-10
{11}
8000 м слаб. дождь {морось} 10/8 330 м
[Frnb As op]
+1.3 -0.1 90 -5 -5 тепло 989.4 982.2
ЮЗ 5
{11}
15 км {дождь, морось} 9/0
[Ac trans]
+1.7 -0.5 85 -4 -4 тепло 990.6 983.4
ЮЗ 5 15 км 9/0
[Ac trans]
+0.8 -1.2 86 -5 -5 тепло 993.0 985.7 +2.1 2
ЮЗ 4-10
{11}
8000 м слаб. ливневой снег 9/6 600 м
[Cb cap Ac trans]
-0.1 -1.5 90 -6 -6 тепло 995.5 988.2
ЮЗ 4
{10}
15 км {ливн. осадки} 9/5 720 м
[Cb cap Ac trans]
-0.3 -3.0 82 -6 -6 тепло 998.4 991.1
ЮЗ 4
{10}
15 км {ливн. осадки} 10/10 750 м
[Sc]
-0.9 -4.4 77 -6 -6 тепло 999.8 992.5
ЮВ 2 2100 м снег 10/8 360 м
[Frnb As op]
-2.0 -2.6 96 -6 -6 тепло 997.7 990.4 -2.1 1 53
С 2 600 м сильн. снег 10/10 120 м
[Frnb Ns]
-1.9 -2.4 96 -6 -6 тепло 994.8 987.5
СЗ 3 5000 м слаб. снег 10/6 630 м
[Sc As op]
-2.7 -4.0 91 -8 -8 тепло 996.5 989.2
СЗ 5 2100 м снег 10/6 420 м
[Sc As op]
-3.1 -4.1 93 -10 -10 тепло 999.4 992.0
З 5
{10}
15 км {снег} 9/6 500 м
[Sc Ac trans]
-3.8 -5.6 87 -11 -11 тепло 1002.2 994.8 -1.7 6
З 4
{10}
6000 м слаб. ливневой снег 9/6 500 м
[Cb cap Ac trans]
-4.3 -5.9 89 -11 -11 тепло 1004.1 996.6
З 4 15 км в посл. час ливневой снег 9/0
[Ac trans]
-4.0 -5.9 87 -10 -10 тепло 1006.4 998.9
З 4 15 км {ливн. осадки} 9/9 930 м
[Sc]
-3.1 -5.1 86 -9 -9 тепло 1007.8 1000.3
З 5 7000 м слаб. ливневой снег 9/8 500 м
[Cb cap Ac trans]
-3.6 -5.4 87 -11 -11 тепло 1009.3 1001.8 -4.6 0.4 56
З 3 15 км {ливн. осадки} 9/3 600 м
[Sc Ac trans]
-4.1 -6.0 87 -10 -10 тепло 1010.7 1003.2
З 3 15 км в посл. час зёрна 9/3 300 м
[St Ac trans]
-4.5 -6.5 86 -10 -10 тепло 1011.2 1003.7
ЮЗ 2 15 км {снег} 9/6 1440 м
[Sc Ac trans]
-6.8 -8.4 88 -11 -11 тепло 1010.9 1003.4
ЮЗ 3 15 км слаб. ливневой снег 9/8 600 м
[Cb cap Ac trans]
-5.6 -7.4 87 -11 -11 тепло 1010.3 1002.8 -3.6 0.0
ЮЗ 2 10 км слаб. ливневой снег 9/8 420 м
[Cb cap Ac trans]
-6.2 -7.7 89 -11 -11 тепло 1009.5 1002.0
Ю 2 2500 м слаб. ливневой снег 9/9 360 м
[Cb cap]
-5.9 -7.0 92 -10 -10 тепло 1009.9 1002.4
ЮЗ 3 5000 м слаб. ливневой снег 9/9 240 м
[Cb cap]
-4.9 -5.9 93 -11 -11 тепло 1010.1 1002.6
ЮЗ 3 15 км в посл. час ливневой снег {морось} 9/9 240 м
[Cb cap]
-4.7 -5.6 93 -10 -10 тепло 1010.3 1002.8 -6.3 2 59
ЮЗ 2 15 км {ливн. осадки} 10/10 210 м
[St]
-4.8 -5.8 93 -9 -9 тепло 1010.9 1003.4
ЮЗ 2 15 км 10/10 210 м
[St]
-4.6 -5.5 93 -9 -9 тепло 1011.6 1004.1
Ю 1 6000 м снежные зёрна 10/10 400 м
[St]
-4.5 -5.4 93 -7 -7 тепло 1012.0 1004.5
Ю 2 2500 м снег 10/8 210 м
[Frnb As op]
-4.8 -5.4 96 -9 -9 тепло 1012.6 1005.0 -4.3 0.6
Ю 2 1900 м сильн. снег 10/8 120 м
[Frnb As op]
-4.3 -5.2 93 -9 -9 тепло 1013.5 1005.9
Ю 1 15 км {снег} 10/10 210 м
[St]
-3.6 -4.4 94 -6 -6 тепло 1014.3 1006.7
Ю 2 15 км {снег, морось} [диам. гололёда 1 мм] 9/9 660 м
[Sc]
-3.8 -5.0 91 -8 -8 тепло 1015.5 1007.9
Ю 2 15 км {ливн. осадки} [диам. гололёда 1 мм] 9/9 270 м
[St]
-3.7 -4.5 94 -8 -8 тепло 1016.1 1008.5 -4.8 1 62
Ю 2 15 км {ливн. осадки} [диам. гололёда 1 мм] 10/10 270 м
[St]
-3.7 -4.8 92 -8 -8 тепло 1016.7 1009.1
Ю 1 9000 м слаб. снег [диам. гололёда 1 мм] 10/8 270 м
[Frnb As op]
-3.6 -4.4 94 -6 -6 тепло 1017.0 1009.4
В 2 15 км {снег} [диам. гололёда 1 мм] 10/10 240 м
[St]
-3.5 -4.6 92 -8 -8 тепло 1017.9 1010.3
Ю 2 8000 м слаб. снег [диам. гололёда 1 мм] 10/8 330 м
[Frnb As op]
-3.4 -4.5 92 -8 -8 тепло 1018.1 1010.5 -3.3 0.3
Ю 2 5000 м слаб. снег [диам. гололёда 1 мм] 10/6 360 м
[Frnb As op]
-3.1 -3.8 95 -7 -7 тепло 1018.3 1010.7
Ю 2 7000 м слаб. снег 10/6 240 м
[Frnb As op]
-2.2 -2.8 96 -6 -6 тепло 1018.8 1011.4
ЮЗ 2 6000 м слаб. снег 10/6 270 м
[Frnb As op]
-0.9 -1.9 93 -5 -5 тепло 1019.5 1012.1
ЮЗ 3 15 км {снег} 10/10 300 м
[St]
-0.6 -1.5 94 -6 -6 тепло 1019.5 1012.1 -3.5 0.2 62
ЮЗ 3 15 км {снег} 10/10 400 м
[St]
-0.9 -2.5 89 -6 -6 тепло 1020.1 1012.7
Ю 3 15 км 10/10 630 м
[Sc]
-1.9 -4.0 86 -7 -7 тепло 1021.0 1013.6
Ю 2 15 км 9/9 660 м
[Sc]
-2.9 -4.2 91 -7 -7 тепло 1021.4 1013.8
Местоположение метеостанции Печора (Коми, Россия): широта 65.12 долгота 57.10 высота над уровнем моря 59 м.
В архиве по умолчанию представлена погода в Печоре за последнюю неделю. Архивные данные за месяц целиком и за предыдущие месяцы, начиная с января 2011 года, Вы можете получить, выбрав интересующий диапазон дат из раскрывающегося списка и нажав кнопку "Найти!".
*Определитесь, кто Вы:
Внимание! Время в таблицах - всемирное. Для получения местного времени необходимо прибавить поправку, которая равна 3 ч.
Смотрите также архив погоды в соседних городах и на ближайших метеорологических станциях:
Партнеры нашего сайта:      
Пояснения к столбцам:
  • Ветер - указаны скорость ветра в м/с - средняя за 10 мин, порывы в срок и между сроками (в фигурных скобках) и направление, откуда дует ветер: С - северный,
  • СВ - северо-восточный, В - восточный, ЮВ - юго-восточный, Ю - южный, ЮЗ - юго-западный, З - западный, СЗ - северо-западный.
  • Видимость - горизонтальная дальность видимости в метрах или километрах. При видимости от 1 до 10 км при отсутствии осадков обычно наблюдается дымка, при ухудшении видимости до 1 км и менее - туман. В сухую погоду видимость может ухудшаться дымом, пылью или мглою.
  • Явления - указаны атмосферные явления, наблюдавшиеся в срок или в последний час перед сроком; фигурными скобками обозначены явления, наблюдавшиеся между сроками (за 1-3 часа до срока); квадратными скобками обозначены град или гололедные отложения с указанием их диаметра в мм.
  • Облачность - указаны через наклонную черту общая и нижняя облачность в баллах и высота нижней границы облаков в метрах; квадратными скобками обозначены формы облаков: Ci - перистые, Cs - перисто-слоистые, Cc - перисто-кучевые, Ac - высококучевые, As - высокослоистые, Sc - слоисто-кучевые, Ns - слоисто-дождевые, Cu - кучевые, Cb - кучево-дождевые. Подробнее классификацию облаков см. в Атласе облаков (PDF).
  • T - Температура воздуха - температура, измеренная на высоте 2 м над землей.
  • Td - Температура точки росы - температура, при понижении до которой содержащийся в воздухе водяной пар достигнет насыщения.
  • f - Относительная влажность воздуха - влажноcть воздуха, измеренная на высоте 2 м над землей.
  • Te - Эффективная температура - температура, которую ощущает одетый по сезону человек в тени. Характеристика душности погоды. При расчете учитывается влияние влажности воздуха и скорости ветра на теплоощущения человека.
  • Tes - Эффективная температура на солнце - температура, которую ощущает человек, с поправкой на солнечный нагрев. Характеристика знойности погоды. Зависит от высоты солнца над горизонтом, облачности и скорости ветра. Ночью, в пасмурную погоду, а также при ветре 12 м/с и более поправка равна нулю.
  • P - Атмосферное давление - приведенное к уровню моря атмосферное давление.
  • Po - Атмосферное давление - измеренное на уровне метеостанции атмосферное давление.
  • Tmin - Минимальная температура - минимум температуры воздуха на высоте 2 м над землей.
  • Tmax - Максимальная температура - максимум температуры воздуха на высоте 2 м над землей.
  • R - Количество осадков - Количество выпавших осадков за период времени, мм. При наведении курсора мыши на число - период времени, за который выпало указанное количество осадков.
  • R24 - Количество осадков - Количество выпавших осадков за 24 часа, мм.
  • S - Снежный покров - Высота снежного покрова, см. При наведении курсора мыши на число - состояние снежного покрова и степень покрытия местности в баллах.